Tel Aviv, Israel

7:25 PM IDT on July 28, 2017 (GMT +0300)
Ben Gurion

Weather History for LLBG - March, 2013

Change the Weather History Date:

Monday, March 25, 2013

  Actual Average Record
Temperature  
Mean Temperature 64 °F -  
Max Temperature 77 °F 72 °F 87 °F (2008)
Min Temperature 50 °F 55 °F 41 °F (2003)
Degree Days  
Heating Degree Days 2    
Growing Degree Days 14 (Base 50)    
Moisture  
Dew Point 47 °F    
Average Humidity 56    
Maximum Humidity 77    
Minimum Humidity 24    
Precipitation  
Precipitation 0.00 in - - ()
Sea Level Pressure  
Sea Level Pressure 30.00 in    
Wind  
Wind Speed 4 mph ()    
Max Wind Speed 15 mph    
Max Gust Speed -    
Visibility 5.4 miles    
Events      
Averages and records for this station are not official NWS values.
T = Trace of Precipitation, MM = Missing Value Source: Averaged Metar Reports

Daily Weather History Graph

Daily Weather History Graph

Search for Another Location

Airport or City:

Trip Planner

Search our weather history database for the weather conditions in past years. The results will help you decide how hot, cold, wet, or windy it might be!

Date:

Astronomy

Mar. 25, 2013 Rise Set
Actual Time 5:37 AM IST 5:55 PM IST
Civil Twilight 5:13 AM IST 6:19 PM IST
Nautical Twilight 4:44 AM IST 6:48 PM IST
Astronomical Twilight 4:15 AM IST 7:17 PM IST
Moon 4:09 PM IST (3/25) 4:03 AM IST (3/25)
Length of Visible Light 13h 06m
Length of Day
12h 17m
Waxing Gibbous, 95% of the Moon is Illuminated
Mar 25
Waxing Gibbous
Mar 27
Full
Apr 3
Last Quarter
Apr 10
New
Apr 18
First Quarter

Hourly Weather History & Observations

Time (IST) Temp. Dew Point Humidity Pressure Visibility Wind Dir Wind Speed Gust Speed Precip Events Conditions
12:20 AM 55.4 °F 46.4 °F 72% 30.09 in - Variable 1.2 mph - N/A   Clear
12:50 AM 57.2 °F 46.4 °F 67% 30.09 in - Variable 2.3 mph - N/A   Clear
1:20 AM 53.6 °F 46.4 °F 77% 30.09 in - ENE 4.6 mph - N/A   Clear
1:50 AM 53.6 °F 46.4 °F 77% 30.09 in - Variable 3.5 mph - N/A   Clear
2:00 AM 54 °F 46 °F 65% 30.10 in 6 mi 3.5 mph - -  
2:20 AM 53.6 °F 44.6 °F 72% 30.09 in - Variable 2.3 mph - N/A   Clear
2:50 AM 51.8 °F 44.6 °F 76% 30.09 in - Variable 2.3 mph - N/A   Clear
3:20 AM 51.8 °F 44.6 °F 76% 30.09 in - Variable 2.3 mph - N/A   Clear
3:50 AM 50.0 °F 42.8 °F 76% 30.09 in - Variable 2.3 mph - N/A   Clear
4:20 AM 50.0 °F 42.8 °F 76% 30.09 in - Calm Calm - N/A   Clear
4:50 AM 50.0 °F 42.8 °F 76% 30.06 in - Variable 3.5 mph - N/A   Clear
5:20 AM 50.0 °F 42.8 °F 76% 30.06 in - Variable 3.5 mph - N/A   Clear
5:50 AM 50.0 °F 42.8 °F 76% 30.06 in 5.0 mi Variable 3.5 mph - N/A   Clear
6:20 AM 51.8 °F 42.8 °F 71% 30.06 in 5.0 mi Variable 3.5 mph - N/A   Clear
6:50 AM 51.8 °F 42.8 °F 71% 30.06 in 5.0 mi East 4.6 mph - N/A   Clear
7:20 AM 57.2 °F 44.6 °F 63% 30.09 in 5.0 mi Variable 1.2 mph - N/A   Clear
7:50 AM 59.0 °F 44.6 °F 59% 30.06 in 5.0 mi Variable 1.2 mph - N/A   Clear
8:00 AM 61 °F 45 °F 44% 30.09 in 5 mi NNW 1.2 mph - -   Haze
8:20 AM 62.6 °F 44.6 °F 52% 30.06 in 5.6 mi Variable 2.3 mph - N/A   Clear
8:50 AM 66.2 °F 42.8 °F 43% 30.09 in - Variable 2.3 mph - N/A   Clear
9:20 AM 68.0 °F 42.8 °F 40% 30.06 in - Variable 3.5 mph - N/A   Clear
9:50 AM 69.8 °F 41.0 °F 35% 30.06 in - Variable 1.2 mph - N/A   Clear
10:20 AM 71.6 °F 41.0 °F 33% 30.06 in - Variable 2.3 mph - N/A   Clear
10:50 AM 75.2 °F 41.0 °F 29% 30.04 in - Variable 3.5 mph - N/A   Clear
11:20 AM 77.0 °F 41.0 °F 28% 30.04 in - Variable 3.5 mph - N/A   Clear
11:50 AM 75.2 °F 46.4 °F 36% 30.01 in - WNW 13.8 mph - N/A   Clear
12:20 PM 75.2 °F 44.6 °F 34% 30.01 in - WNW 13.8 mph - N/A   Clear
12:50 PM 75.2 °F 44.6 °F 34% 30.01 in - WNW 13.8 mph - N/A   Clear
1:20 PM 77.0 °F 44.6 °F 32% 29.98 in - NW 13.8 mph - N/A   Clear
1:50 PM 75.2 °F 46.4 °F 36% 29.98 in - NW 15.0 mph - N/A   Clear
2:00 PM 76 °F 46 °F 24% 29.98 in 6 mi NW 15.0 mph - -  
2:20 PM 75.2 °F 48.2 °F 38% 29.95 in - NW 13.8 mph - N/A   Clear
2:50 PM 77.0 °F 50.0 °F 39% 29.95 in - NW 10.4 mph - N/A   Clear
3:20 PM 77.0 °F 48.2 °F 36% 29.92 in - NW 10.4 mph - N/A   Clear
3:50 PM 77.0 °F 48.2 °F 36% 29.92 in - NW 10.4 mph - N/A   Clear
4:20 PM 75.2 °F 46.4 °F 36% 29.92 in - WNW 9.2 mph - N/A   Clear
4:50 PM 75.2 °F 48.2 °F 38% 29.92 in - NW 9.2 mph - N/A   Clear
5:20 PM 73.4 °F 51.8 °F 47% 29.92 in - WNW 5.8 mph - N/A   Clear
5:50 PM 69.8 °F 53.6 °F 56% 29.92 in - West 5.8 mph - N/A   Clear
6:20 PM 68.0 °F 53.6 °F 60% 29.92 in - West 4.6 mph - N/A   Clear
6:50 PM 66.2 °F 53.6 °F 64% 29.92 in - WNW 4.6 mph - N/A   Clear
7:20 PM 66.2 °F 53.6 °F 64% 29.92 in - Variable 3.5 mph - N/A   Clear
7:50 PM 64.4 °F 53.6 °F 68% 29.92 in - Variable 3.5 mph - N/A   Clear
8:00 PM 64 °F 53 °F 60% 29.93 in 6 mi 2.3 mph - -  
8:20 PM 64.4 °F 53.6 °F 68% 29.92 in - Variable 2.3 mph - N/A   Clear
8:50 PM 64.4 °F 53.6 °F 68% 29.92 in - Variable 2.3 mph - N/A   Clear
9:20 PM 62.6 °F 51.8 °F 68% 29.92 in - Variable 1.2 mph - N/A   Clear
9:50 PM 62.6 °F 53.6 °F 72% 29.92 in - Variable 2.3 mph - N/A   Clear
10:20 PM 62.6 °F 51.8 °F 68% 29.92 in - Variable 2.3 mph - N/A   Clear
10:50 PM 59.0 °F 50.0 °F 72% 29.89 in - Variable 1.2 mph - N/A   Clear
11:20 PM 59.0 °F 50.0 °F 72% 29.89 in - Variable 1.2 mph - N/A   Clear